Beaufort MCAS, SC

4:20 PM EDT on March 24, 2017 (GMT -0400)
Beaufort Marine Corps Air Station

Weather History for KNBC - May, 2013

Change the Weather History Date:

Saturday, May 18, 2013

  Actual Average Record
Temperature  
Mean Temperature 72 °F -  
Max Temperature 84 °F 83 °F 98 °F (1960)
Min Temperature 63 °F 63 °F 51 °F (1973)
Cooling Degree Days 8    
Growing Degree Days 22 (Base 50)    
Moisture  
Dew Point 65 °F    
Average Humidity 80    
Maximum Humidity 97    
Minimum Humidity 56    
Precipitation  
Precipitation 0.12 in - - ()
Sea Level Pressure  
Sea Level Pressure 30.11 in    
Wind  
Wind Speed 3 mph (SSW)    
Max Wind Speed 12 mph    
Max Gust Speed 17 mph    
Visibility 8 miles    
Events Fog , Rain , Thunderstorm    
Averages and records for this station are not official NWS values.
T = Trace of Precipitation, MM = Missing Value Source: NWS Daily Summary

Daily Weather History Graph

Daily Weather History Graph

Search for Another Location

Airport or City:

Trip Planner

Search our weather history database for the weather conditions in past years. The results will help you decide how hot, cold, wet, or windy it might be!

Date:

Astronomy

May. 18, 2013 Rise Set
Actual Time 6:22 AM EDT 8:16 PM EDT
Civil Twilight 5:55 AM EDT 8:43 PM EDT
Nautical Twilight 5:22 AM EDT 9:16 PM EDT
Astronomical Twilight 4:47 AM EDT 9:52 PM EDT
Moon 1:40 PM EDT (5/18) 1:50 AM EDT (5/18)
Length of Visible Light 14h 48m
Length of Day
13h 54m
First Quarter, 55% of the Moon is Illuminated
May 18
First Quarter
May 25
Full
May 31
Last Quarter
Jun 8
New
Jun 16
First Quarter

Hourly Weather History & Observations

Time (EDT) Temp. Heat Index Dew Point Humidity Pressure Visibility Wind Dir Wind Speed Gust Speed Precip Events Conditions
12:56 AM 70.0 °F - 64.9 °F 84% 30.12 in 10.0 mi Calm Calm - N/A   Clear
1:56 AM 66.9 °F - 63.0 °F 87% 30.11 in 10.0 mi West 3.5 mph - N/A   Clear
2:56 AM 64.9 °F - 62.1 °F 90% 30.10 in 10.0 mi Calm Calm - N/A   Clear
3:29 AM 63.0 °F - 62.1 °F 97% 30.10 in 1.8 mi Calm Calm - N/A   Clear
3:31 AM 64.0 °F - 62.1 °F 93% 30.10 in 1.0 mi Calm Calm - N/A   Mist
3:42 AM 64.9 °F - 62.1 °F 90% 30.10 in 2.5 mi Calm Calm - N/A   Clear
3:49 AM 64.9 °F - 63.0 °F 93% 30.10 in 10.0 mi Calm Calm - N/A   Clear
3:56 AM 64.9 °F - 63.0 °F 93% 30.10 in 6.0 mi Calm Calm - N/A   Clear
4:19 AM 64.0 °F - 63.0 °F 96% 30.10 in 0.8 mi Calm Calm - N/A   Clear
4:21 AM 64.0 °F - 62.1 °F 93% 30.10 in 0.5 mi Calm Calm - N/A Fog Fog
4:34 AM 64.9 °F - 63.0 °F 93% 30.10 in 1.0 mi Calm Calm - 0.00 in Rain Light Rain
4:36 AM 64.0 °F - 63.0 °F 96% 30.10 in 1.8 mi West 3.5 mph - 0.00 in   Partly Cloudy
4:43 AM 64.0 °F - 62.1 °F 93% 30.10 in 10.0 mi West 3.5 mph - 0.00 in   Partly Cloudy
4:56 AM 64.9 °F - 62.1 °F 90% 30.10 in 10.0 mi Calm Calm - 0.00 in   Clear
5:56 AM 64.9 °F - 62.1 °F 90% 30.10 in 10.0 mi Calm Calm - N/A   Clear
6:56 AM 66.9 °F - 64.0 °F 90% 30.14 in 10.0 mi Calm Calm - 0.00 in   Clear
7:56 AM 72.0 °F - 68.0 °F 87% 30.15 in 10.0 mi Calm Calm - N/A   Clear
8:56 AM 75.0 °F - 68.0 °F 79% 30.15 in 10.0 mi SW 11.5 mph 17.3 mph N/A   Clear
9:56 AM 80.1 °F 82.3 °F 66.9 °F 64% 30.15 in 10.0 mi SW 5.8 mph - N/A   Scattered Clouds
10:38 AM 81.0 °F 83.3 °F 66.9 °F 62% 30.14 in 10.0 mi WSW 8.1 mph - N/A   Mostly Cloudy
10:56 AM 81.0 °F 83.3 °F 66.9 °F 62% 30.14 in 10.0 mi SW 10.4 mph - N/A   Mostly Cloudy
11:08 AM 81.0 °F 83.3 °F 66.9 °F 62% 30.14 in 10.0 mi Variable 4.6 mph - N/A   Scattered Clouds
11:20 AM 82.0 °F 84.5 °F 66.9 °F 60% 30.14 in 10.0 mi SSW 6.9 mph - N/A   Mostly Cloudy
11:33 AM 80.1 °F 82.7 °F 68.0 °F 67% 30.13 in 10.0 mi SSE 4.6 mph - N/A   Scattered Clouds
11:56 AM 82.9 °F 85.8 °F 68.0 °F 60% 30.14 in 10.0 mi South 5.8 mph - N/A   Partly Cloudy
12:56 PM 82.9 °F 85.8 °F 68.0 °F 60% 30.13 in 10.0 mi South 5.8 mph - N/A   Clear
1:56 PM 81.0 °F 83.3 °F 66.9 °F 62% 30.12 in 10.0 mi South 8.1 mph - N/A   Clear
2:56 PM 81.0 °F 82.7 °F 64.9 °F 58% 30.10 in 10.0 mi South 9.2 mph - N/A   Clear
3:56 PM 80.1 °F 81.5 °F 63.0 °F 56% 30.08 in 10.0 mi South 10.4 mph 17.3 mph N/A   Clear
4:49 PM 77.0 °F - 63.0 °F 62% 30.09 in 10.0 mi South 6.9 mph - N/A Thunderstorm Thunderstorm
4:56 PM 77.0 °F - 64.0 °F 64% 30.08 in 10.0 mi South 8.1 mph - N/A Thunderstorm Thunderstorm
5:08 PM 77.0 °F - 64.0 °F 64% 30.07 in 10.0 mi South 6.9 mph - N/A   Clear
5:56 PM 77.0 °F - 66.0 °F 69% 30.09 in 10.0 mi South 6.9 mph - N/A Thunderstorm Thunderstorm
6:13 PM 75.9 °F - 66.9 °F 74% 30.10 in 10.0 mi SSW 5.8 mph - N/A   Scattered Clouds
6:56 PM 73.0 °F - 69.1 °F 87% 30.11 in 3.0 mi South 4.6 mph - 0.05 in Rain Rain
7:56 PM 73.0 °F - 70.0 °F 90% 30.10 in 10.0 mi Variable 3.5 mph - 0.07 in Rain Light Rain
8:32 PM 73.0 °F - 70.0 °F 90% 30.10 in 10.0 mi Calm Calm - 0.00 in   Overcast
8:56 PM 72.0 °F - 70.0 °F 93% 30.10 in 10.0 mi SSE 3.5 mph - 0.00 in   Overcast
9:56 PM 72.0 °F - 69.1 °F 91% 30.11 in 10.0 mi Calm Calm - N/A   Mostly Cloudy
10:56 PM 72.0 °F - 69.1 °F 91% 30.12 in 10.0 mi Calm Calm - N/A   Mostly Cloudy
11:56 PM 71.1 °F - 69.1 °F 93% 30.11 in 10.0 mi Calm Calm - N/A   Partly Cloudy